Madison, WI

5:36 AM CDT on September 15, 2019 (GMT -0500)
Dane County Regional-Truax

Weather History for KMSN - July, 2019

Change the Weather History Date:

Tuesday, July 23, 2019

  Actual Average Record
Temperature  
Mean Temperature 71 °F 71 °F  
Max Temperature 81 °F 81 °F 101 °F (1934)
Min Temperature 60 °F 61 °F 46 °F (1970)
Degree Days  
Heating Degree Days 0 0  
Month to date heating degree days 0 0  
Since 1 June heating degree days 42 60  
Since 1 July heating degree days 0 0  
Cooling Degree Days 6 7  
Month to date cooling degree days 252 159  
Year to date cooling degree days 370 309  
Since 1 June cooling degree days 350 279  
Growing Degree Days 20 (Base 50)    
Moisture  
Dew Point 57 °F    
Average Humidity 66    
Maximum Humidity 87    
Minimum Humidity 45    
Precipitation  
Precipitation 0.00 in 0.13 in 2.05 in (1884)
Month to date precipitation 5.56 3.17  
Year to date precipitation 26.53 19.54  
Snow  
Snow 0.00 in 0.00 in 0.00 in ()
Month to date snowfall 0.0 0.0  
Since 1 June snowfall 0.0 0.0  
Since 1 July snowfall 0.0 0.0  
Snow Depth 0.00 in    
Sea Level Pressure  
Sea Level Pressure 30.12 in    
Wind  
Wind Speed 6 mph (NW)    
Max Wind Speed 16 mph    
Max Gust Speed 22 mph    
Visibility 10 miles    
Events      
T = Trace of Precipitation, MM = Missing Value Source: NWS Daily Summary

Daily Weather History Graph

Daily Weather History Graph

Search for Another Location

Airport or City:

Astronomy

Jul. 23, 2019 Rise Set
Actual Time 5:38 AM CDT 8:28 PM CDT
Civil Twilight 5:05 AM CDT 9:01 PM CDT
Nautical Twilight 4:22 AM CDT 9:43 PM CDT
Astronomical Twilight 3:33 AM CDT 10:32 PM CDT
Moon No Moon Rise 12:01 PM CDT (7/23)
Length of Visible Light 15h 56m
Length of Day
14h 50m
Waning Gibbous, 63% of the Moon is Illuminated
Jul 23
Waning Gibbous
Jul 24
Last Quarter
Jul 31
New
Aug 7
First Quarter
Aug 15
Full

Hourly Weather History & Observations

Time (CDT) Temp. Dew Point Humidity Pressure Visibility Wind Dir Wind Speed Gust Speed Precip Events Conditions
12:53 AM 64.0 °F 54.0 °F 70% 30.12 in 10.0 mi NW 3.5 mph - N/A   Clear
1:53 AM 62.1 °F 55.0 °F 78% 30.11 in 10.0 mi WNW 3.5 mph - N/A   Clear
2:53 AM 61.0 °F 55.0 °F 81% 30.11 in 10.0 mi WNW 3.5 mph - N/A   Scattered Clouds
3:53 AM 62.1 °F 55.0 °F 78% 30.11 in 10.0 mi NW 3.5 mph - N/A   Clear
4:53 AM 61.0 °F 55.0 °F 81% 30.12 in 10.0 mi WNW 5.8 mph - N/A   Partly Cloudy
5:53 AM 61.0 °F 55.0 °F 81% 30.12 in 10.0 mi WNW 5.8 mph - N/A   Partly Cloudy
6:53 AM 63.0 °F 57.0 °F 81% 30.13 in 10.0 mi Calm Calm - N/A   Partly Cloudy
7:53 AM 66.0 °F 57.9 °F 75% 30.15 in 10.0 mi NW 8.1 mph - N/A   Partly Cloudy
8:53 AM 69.1 °F 55.9 °F 63% 30.15 in 10.0 mi North 9.2 mph - N/A   Clear
9:53 AM 71.1 °F 57.0 °F 61% 30.15 in 10.0 mi North 10.4 mph 21.9 mph N/A   Clear
10:53 AM 73.0 °F 57.0 °F 57% 30.14 in 10.0 mi NNW 12.7 mph 21.9 mph N/A   Partly Cloudy
11:53 AM 75.0 °F 57.9 °F 55% 30.14 in 10.0 mi NNW 9.2 mph 20.7 mph N/A   Partly Cloudy
12:53 PM 77.0 °F 55.9 °F 48% 30.12 in 10.0 mi NNW 10.4 mph - N/A   Partly Cloudy
1:53 PM 78.1 °F 55.0 °F 45% 30.12 in 10.0 mi North 12.7 mph 20.7 mph N/A   Partly Cloudy
2:53 PM 79.0 °F 57.0 °F 47% 30.11 in 10.0 mi NW 10.4 mph 18.4 mph N/A   Scattered Clouds
3:53 PM 79.0 °F 57.9 °F 48% 30.11 in 10.0 mi Variable 6.9 mph 17.3 mph N/A   Mostly Cloudy
4:53 PM 78.1 °F 59.0 °F 52% 30.10 in 10.0 mi NNW 4.6 mph - N/A   Mostly Cloudy
5:53 PM 78.1 °F 59.0 °F 52% 30.08 in 10.0 mi NNW 4.6 mph - N/A   Mostly Cloudy
6:53 PM 75.0 °F 59.0 °F 57% 30.09 in 10.0 mi NNW 3.5 mph - N/A   Scattered Clouds
7:53 PM 75.0 °F 60.1 °F 60% 30.10 in 10.0 mi WNW 3.5 mph - N/A   Mostly Cloudy
8:53 PM 70.0 °F 61.0 °F 73% 30.10 in 10.0 mi WNW 5.8 mph - N/A   Partly Cloudy
9:53 PM 66.9 °F 61.0 °F 81% 30.12 in 10.0 mi WNW 5.8 mph - N/A   Partly Cloudy
10:53 PM 66.0 °F 61.0 °F 84% 30.12 in 10.0 mi NW 6.9 mph - N/A   Clear
11:53 PM 64.9 °F 60.1 °F 84% 30.12 in 10.0 mi Calm Calm - N/A   Clear